Regional Weather Roundup
Issued by NWS State College, PA

Home | Current Version | Previous Version | Text Only | Print | Product List | Glossary Off
Versions: 1 2 3 4 5 6 7 8 9 10 11 12 13 14 15 16 17 18 19 20 21 22 23 24 25 26 27 28 29 30 31 32 33 34 35 36 37 38 39 40 41 42 43 44 45 46 47 48 49 50

624
ASUS41 KCTP 011603
RWRCTP

REGIONAL WEATHER ROUNDUP
NATIONAL WEATHER SERVICE STATE COLLEGE PA
1200 PM EDT SUN MAY 01 2016

Note: "fair" indicates few or no clouds below 12,000 feet with no
significant weather and/or obstructions to visibility.

* = STATION THAT DOES NOT REPORT PRECIPITATION /E.G. RAIN...SNOW...ETC/
    THUNDER OR FOG.

PAZ002>004-007>009-013>016-020>023-029>032-011700-
WESTERN PENNSYLVANIA

CITY           SKY/WX    TMP DP  RH WIND       PRES   REMARKS
ERIE           FOG       51  49  92 N3        29.93R VSB 1
MEADVILLE        N/A    N/A N/A N/A MISG      29.93R
FRANKLIN*      CLOUDY    61  57  88 SW7       29.96S
NEW CASTLE     CLOUDY    65  60  84 W8        29.95S
BEAVER COUNTY  NOT AVBL
BUTLER*        CLOUDY    63  59  88 SW8       29.99R
PITTSBURGH INT CLOUDY    64  59  83 W8        29.96R
PITTSBURGH     CLOUDY    64  57  78 W10       29.96S
INDIANA*       CLOUDY    61  61 100 W8        30.00R FOG
LATROBE        CLOUDY    64  63  94 SW9G18    29.98S
WASHINGTON CO* CLOUDY    64  57  77 W9        29.97F
$$

PAZ004>006-010>012-017>019-024>028-033>037-041-042-045-046-049>053-011700-
CENTRAL PENNSYLVANIA

CITY           SKY/WX    TMP DP  RH WIND       PRES   REMARKS
BRADFORD       LGT RAIN  54  52  93 S6        29.95S FOG
DUBOIS         CLOUDY    54  52  93 SE6       29.95F FOG
CLEARFIELD     LGT RAIN  53  51  93 NE5       29.98F FOG
JOHNSTOWN      LGT RAIN  58  53  84 W6        29.98S
ALTOONA        CLOUDY    54  52  93 S10       30.01F
STATE COLLEGE  LGT RAIN  50  50 100 S3        30.01F
WILLIAMSPORT   CLOUDY    47  45  93 E14G21    30.06F FOG
SELINSGROVE    CLOUDY    47  44  90 S6        30.09S
FT INDIANTOWN  CLOUDY    44  44 100 NE7       30.11F
CAPITAL CITY   CLOUDY    50  45  83 E12       30.10F
HARRISBURG     CLOUDY    50  46  86 SE9       30.09F
YORK           CLOUDY    50  48  93 E8        30.08F
$$

PAZ038>040-043-044-047-048-054-055-060>062-067>071-011700-
EASTERN PENNSYLVANIA

CITY           SKY/WX    TMP DP  RH WIND       PRES   REMARKS
SCRANTON       LGT RAIN  45  39  79 VRB5      30.09F
MOUNT POCONO   LGT RAIN  39  38  96 SE12      30.10S FOG
ALLENTOWN      LGT RAIN  47  42  83 VRB5      30.15F
QUAKERTOWN*    CLOUDY    45  45 100 SE7       30.15F
READING        CLOUDY    47  42  83 SE5       30.12F
LANCASTER      CLOUDY    48  46  93 SE8       30.11F
COATESVILLE    LGT RAIN  45  45 100 SE9       30.12F
POTTSTOWN      CLOUDY    46  32  58 E5        30.14F
BLUE BELL      CLOUDY    45  45 100 E6        30.13F
DOYLESTOWN     LGT RAIN  45  45 100 VRB3      30.14F
WILLOW GROVE   NOT AVBL
NORTH PHILA    LGT RAIN  50  47  89 SE10      30.18S FOG
PHILADELPHIA   RAIN      50  46  86 E7        30.15F FOG
$$




USA.gov is the U.S. government's official web portal to all federal, state and local government web resources and services.